This is the latest recevied weather packets stored in our database for station/object KC8QDR-1. If no packets are shown the sender has not sent any weather packets the latest 10 day(s).
| Time | Temp. | Humidity | Pressure | Rain* | Wind** | Luminosity | Snow |
|---|---|---|---|---|---|---|---|
| 1777498725 | 8.89° C | 96% | 1013.9 hPa | 0 mm | 4.02 m/s, 23° | - | - |
| 1777498124 | 8.89° C | 96% | 1013.8 hPa | 0 mm | 1.79 m/s, 43° | - | - |
| 1777497525 | 8.89° C | 96% | 1013.8 hPa | 0 mm | 3.58 m/s, 23° | - | - |
| 1777496925 | 9.44° C | 96% | 1013.9 hPa | 0 mm | 2.68 m/s, 344° | - | - |
| 1777496325 | 9.44° C | 96% | 1014 hPa | 0 mm | 2.24 m/s, 355° | - | - |
| 1777495725 | 9.44° C | 96% | 1013.9 hPa | 0 mm | 2.68 m/s, 359° | - | - |
| 1777495125 | 10° C | 96% | 1014 hPa | 0 mm | 3.13 m/s, 16° | - | - |
| 1777494524 | 11.11° C | 95% | 1014.2 hPa | 0 mm | 3.58 m/s, 15° | - | - |
| 1777493924 | 11.67° C | 94% | 1014.3 hPa | 0 mm | 2.68 m/s, 4° | - | - |
| 1777493324 | 12.22° C | 95% | 1014.4 hPa | 0.25 mm | 3.58 m/s, 359° | - | - |
| 1777492727 | 12.22° C | 94% | 1014.6 hPa | 0.76 mm | 3.58 m/s, 352° | - | - |
| 1777492126 | 12.22° C | 94% | 1014.7 hPa | 1.52 mm | 2.24 m/s, 2° | - | - |
| 1777491525 | 12.78° C | 95% | 1014.7 hPa | 2.79 mm | 3.58 m/s, 333° | - | - |
| 1777490924 | 13.33° C | 96% | 1014.6 hPa | 3.56 mm | 3.13 m/s, 9° | - | - |
| 1777490325 | 13.33° C | 96% | 1014.7 hPa | 4.32 mm | 1.79 m/s, 344° | - | - |
| 1777489724 | 13.33° C | 96% | 1014.3 hPa | 4.32 mm | 1.79 m/s, 321° | - | - |
| 1777489125 | 12.78° C | 96% | 1014.6 hPa | 3.56 mm | 1.79 m/s, 347° | - | - |
| 1777488524 | 12.78° C | 95% | 1014.6 hPa | 3.3 mm | 1.34 m/s, 4° | - | - |
| 1777487925 | 13.33° C | 95% | 1014.7 hPa | 2.03 mm | 1.34 m/s, 2° | - | - |
| 1777487324 | 13.33° C | 95% | 1014.5 hPa | 1.02 mm | 0 m/s | - | - |
| 1777486725 | 13.33° C | 95% | 1014.3 hPa | 0.76 mm | 1.34 m/s, 359° | - | - |
| 1777486125 | 13.33° C | 95% | 1013.9 hPa | 1.02 mm | 3.13 m/s, 11° | - | - |
| 1777485525 | 13.33° C | 95% | 1014.2 hPa | 1.78 mm | 2.68 m/s, 343° | - | - |
| 1777484924 | 13.33° C | 96% | 1014 hPa | 2.54 mm | 1.79 m/s, 19° | - | - |
| 1777484325 | 12.78° C | 95% | 1014.5 hPa | 2.54 mm | 1.79 m/s, 18° | - | - |
* Rain latest hour (hover to see other rain measurements)
** Current wind speed in m/s (hover to see current wind gust speed)